Location: Knowlton
(51.2333°N, 1.2667°E)
Time: 07:07:48
(UTC+00:00)

ISS - Pass Details

Date: 03 October 2021
Orbit: 417 x 423 km, 51.6° (Epoch: 24 October)

Event Time Altitude Azimuth Distance (km) Brightness Sun altitude
Rises 18:16:32 0° 285° (WNW) 2,366 2.1 -8.4°
Reaches altitude 10° 18:18:42 10° 277° (W) 1,500 0.8 -8.8°
Maximum altitude 18:21:52 40° 207° (SSW) 636 -2.6 -9.3°
Drops below altitude 10° 18:25:02 10° 136° (SE) 1,497 -1.4 -9.8°
Enters shadow 18:25:19 - 135° (SE) 1,605 -1.3 -9.8°
